Location: Waldport
(44.4270°N, 124.0680°W)
Time: 13:46:46
(UTC-07:00)

Meteor 1-26 Rocket - Visible Passes

Search period start: 31 October 2014 00:00
Search period end: 09 November 2014 23:00
Orbit: 823 x 913 km, 81.3° (Epoch: 31 October)

Date Brightness Start Highest point End Pass type
(mag) Time Alt. Az. Time Alt. Az. Time Alt. Az.
31 Oct 7.2 05:16:35 10° NNE 05:19:05 13° ENE 05:21:36 10° E visible
31 Oct 4.6 06:57:29 10° N 07:03:25 77° E 07:09:22 10° SSE visible
31 Oct 5.8 18:32:22 10° ESE 18:34:25 12° E 18:36:29 10° ENE visible
31 Oct 4.1 20:11:10 10° S 20:16:44 89° E 20:22:30 10° N visible
31 Oct 6.9 21:58:00 10° W 22:00:56 14° WNW 22:03:54 10° NNW visible
01 Nov 7.2 05:09:41 10° NNE 05:12:18 13° ENE 05:14:55 10° E visible
01 Nov 4.6 06:50:40 10° N 06:56:37 78° E 07:02:34 10° SSE visible
01 Nov 4.1 20:04:20 10° S 20:09:55 90° W 20:15:42 10° N visible
01 Nov 7.0 21:51:16 10° W 21:54:08 14° WNW 21:57:03 10° NNW visible
02 Nov 7.2 04:02:48 10° NNE 04:05:31 13° ENE 04:08:14 10° E visible
02 Nov 4.5 05:43:52 10° N 05:49:49 80° E 05:55:46 10° SSE visible
02 Nov 4.2 18:57:31 10° S 19:03:07 88° W 19:08:54 10° N visible
02 Nov 7.0 20:44:32 10° W 20:47:21 14° WNW 20:50:12 10° NNW visible
03 Nov 7.2 03:55:55 10° NNE 03:58:44 13° ENE 04:01:33 10° E visible
03 Nov 4.5 05:37:03 10° N 05:43:01 81° E 05:48:58 10° SSE visible
03 Nov 4.2 18:50:41 10° S 18:56:18 87° W 19:02:05 10° N visible
03 Nov 7.0 20:37:48 10° W 20:40:33 14° WNW 20:43:21 10° NNW visible
04 Nov 7.2 03:49:03 10° NNE 03:51:57 14° ENE 03:54:51 10° E visible
04 Nov 4.4 05:30:15 10° N 05:36:13 82° E 05:42:10 10° SSE visible
04 Nov 4.2 18:43:52 10° S 18:49:29 85° W 18:55:17 10° N visible
04 Nov 7.1 20:31:04 10° W 20:33:45 13° WNW 20:36:29 10° NNW visible
05 Nov 7.1 03:42:11 10° NNE 03:45:10 14° ENE 03:48:09 10° E visible
05 Nov 4.4 05:23:26 10° N 05:29:25 84° E 05:35:22 10° SSE visible
05 Nov 4.3 18:37:03 10° S 18:42:40 84° W 18:48:29 10° N visible
05 Nov 7.1 20:24:20 10° W 20:26:58 13° WNW 20:29:38 10° NNW visible
06 Nov 7.1 03:35:18 10° NNE 03:38:23 14° ENE 03:41:26 10° E visible
06 Nov 4.4 05:16:38 10° N 05:22:37 85° E 05:28:34 10° S visible
06 Nov 4.3 18:30:13 10° SSW 18:35:52 83° W 18:41:41 10° N visible
06 Nov 7.1 20:17:36 10° W 20:20:10 13° WNW 20:22:46 10° NNW visible
07 Nov 7.1 03:28:26 10° NNE 03:31:36 14° ENE 03:34:44 10° E visible
07 Nov 4.3 05:09:50 10° N 05:15:49 86° E 05:21:45 10° S visible
07 Nov 4.3 18:23:24 10° SSW 18:29:03 81° W 18:34:53 10° N visible
07 Nov 7.1 20:10:53 10° W 20:13:23 13° WNW 20:15:55 10° NNW visible
08 Nov 7.0 03:21:35 10° NNE 03:24:48 15° ENE 03:28:01 10° E visible
08 Nov 4.3 05:03:01 10° N 05:09:01 88° E 05:14:57 10° S visible
08 Nov 4.4 18:16:35 10° SSW 18:22:14 80° W 18:28:05 10° N visible
08 Nov 7.1 20:04:10 10° W 20:06:35 13° WNW 20:09:03 10° NNW visible
09 Nov 7.0 03:14:43 10° NNE 03:18:01 15° ENE 03:21:18 10° E visible
09 Nov 4.3 04:56:13 10° N 05:02:13 89° E 05:08:08 10° S visible
09 Nov 4.4 18:09:45 10° SSW 18:15:25 79° W 18:21:17 10° N visible
09 Nov 7.1 19:57:26 10° W 19:59:48 12° WNW 20:02:11 10° NW visible
